[[{"header":{"parameterUnit":"m.s-1","parameterCategory":1,"la1":30.2991,"la2":30.254,"lo1":-89.0895,"lo2":-89.0444,"dx":0.0017,"dy":0.0017,"nx":28,"ny":28,"refTime":"2022-11-30T15:00:00:Z","depth":0,"parameterNumber":2,"parameterNumberName":"U-component_of_WINDS"},"data":[0,0,0,0,0,0,0,0,0,0,0,0,0,0,0,0,0,0,0,0,0,0,0,0,0,0,0,0,0,0,0,0,0,0,0,0,0,0,0,0,0,0,0,0,0,0,0,0,0,0,0,0,0,0,0,0,0,0,-2.2145,-2.2146,0,-2.2247,-2.2248,-2.2249,-2.2213,-2.221,-2.2208,-2.2206,-2.2312,-2.2317,-2.2322,0,0,0,0,0,0,0,0,0,0,0,0,0,-2.1919,-2.1923,-2.2145,-2.2146,-2.2147,-2.2247,-2.2248,-2.225,-2.2213,-2.221,-2.2208,-2.2205,-2.2311,-2.2317,-2.2322,0,0,0,0,0,0,0,0,0,0,0,0,0,-2.2019,-2.1925,-2.2145,-2.2141,-2.2142,-2.2247,-2.2248,-2.225,-2.2214,-2.221,-2.2207,-2.2204,-2.2309,-2.2316,-2.2323,-2.2438,0,0,-2.2346,-2.2349,0,0,0,0,0,0,0,0,-2.2013,-2.2027,-2.214,-2.2142,-2.2142,-2.2214,-2.2208,-2.2313,-2.2215,-2.2186,-2.2206,-2.2202,-2.2282,-2.2292,-2.2319,-2.2443,-2.2448,-2.2347,-2.2351,-2.2354,-2.2357,0,0,0,0,0,0,0,-2.2006,-2.2023,-2.2185,-2.2142,-2.2143,-2.2135,-2.2145,-2.2227,-2.2253,-2.2189,-2.2186,-2.2199,-2.2282,-2.2311,-2.2321,-2.2449,-2.2347,-2.2353,-2.2358,-2.2361,-2.2673,-2.2676,0,0,0,0,0,0,-2.1999,-2.2017,-2.2182,-2.2188,-2.2068,-2.2142,-2.2153,-2.2194,-2.2251,-2.2257,-2.2202,-2.2197,-2.23,-2.2312,-2.2324,-2.2463,-2.2354,-2.2361,-2.2366,-2.2669,-2.2674,-2.2678,0,0,0,0,0,0,-2.1994,-2.2014,-2.2178,-2.2102,-2.2122,-2.2149,-2.2196,-2.2198,-2.2227,-2.2261,-2.2266,-2.2227,-2.2298,-2.2314,-2.241,-2.2466,-2.2365,-2.2372,-2.2665,-2.267,-2.2676,-2.2741,0,0,0,0,0,0,-2.1988,-2.2012,-2.2056,-2.2103,-2.2126,-2.2262,-2.2199,-2.2203,-2.224,-2.2235,-2.2286,-2.2291,-2.2297,-2.2399,-2.2417,-2.2475,-2.2377,-2.266,-2.2667,-2.2674,-2.2734,-2.2748,-2.2761,0,0,0,0,0,-2.198,-2.2071,-2.2059,-2.2079,-2.2182,-2.2265,-2.2279,-2.2283,-2.2245,-2.2289,-2.2311,-2.229,-2.2456,-2.2409,-2.243,-2.249,-2.2656,-2.2665,-2.2673,-2.2728,-2.2746,-2.276,0,0,0,0,0,0,-2.2031,-2.2077,-2.2064,-2.2173,-2.2215,-2.2259,-2.2315,-2.2301,-2.2355,-2.2348,-2.2351,-2.2363,-2.2462,-2.2485,-2.2431,-2.2604,-2.2551,-2.2564,-2.2585,-2.2602,-2.2615,-2.2608,-2.2384,0,0,0,0,0,-2.2055,-2.2118,-2.2155,-2.2248,-2.227,-2.2289,-2.2325,-2.2324,-2.2369,-2.2387,-2.2415,-2.2459,-2.2522,-2.2563,-2.2622,-2.2736,-2.2747,-2.2788,-2.2801,-2.2812,-2.2824,-2.2886,-2.2904,-2.2706,-2.2706,-2.2706,0,0,-2.2105,-2.2138,-2.2178,-2.2259,-2.2292,-2.2358,-2.2304,-2.2377,-2.2426,-2.2398,-2.2491,-2.2513,-2.2562,-2.2668,-2.2716,-2.269,-2.288,-2.2823,-2.2831,-2.2837,-2.2897,-2.2915,-2.2932,-2.2712,-2.2711,-2.271,0,0,-2.2231,-2.2262,-2.2343,-2.2376,-2.2426,-2.2438,-2.2457,-2.2502,-2.2516,-2.2609,-2.2589,-2.2647,-2.2754,-2.279,-2.2823,-2.296,-2.2943,-2.2979,-2.3049,-2.311,-2.3125,-2.3139,-2.3189,-2.3207,-2.299,-2.299,-2.2991,0,-2.2288,-2.2386,-2.2386,-2.246,-2.2496,-2.2472,-2.2555,-2.2587,-2.2654,-2.268,-2.2649,-2.2783,-2.2814,-2.2928,-2.2962,-2.2988,-2.3011,-2.2974,-2.3123,-2.3137,-2.315,-2.3198,-2.3216,-2.2995,-2.2994,-2.2994,-2.2993,0,-2.2454,-2.2522,-2.2581,-2.2646,-2.2688,-2.2766,-2.2778,-2.2821,-2.2816,-2.2831,-2.2925,-2.2961,-2.3028,-2.3054,-2.305,-2.3168,-2.315,-2.3122,-2.3069,-2.3173,-2.3218,-2.3236,-2.3001,-2.2999,-2.2998,-2.2997,0,0,-2.2618,-2.2679,-2.2701,-2.273,-2.2782,-2.2835,-2.2911,-2.2975,-2.3012,-2.3058,-2.3123,-2.3213,-2.3187,-2.3223,-2.3223,-2.3276,-2.3383,-2.324,-2.3242,-2.3267,-2.3515,-2.3538,-2.3559,-2.3371,-2.3374,-2.3377,-2.3512,0,-2.2749,-2.2882,-2.2884,-2.3007,-2.307,-2.3047,-2.3113,-2.3153,-2.3168,-2.3224,-2.3241,-2.3306,-2.3265,-2.3287,-2.3338,-2.3359,-2.3433,-2.3349,-2.3432,-2.3435,-2.3422,-2.3582,-2.3607,-2.3732,-2.3529,-2.3532,-2.3534,0,-2.292,-2.2971,-2.31,-2.3143,-2.3169,-2.3229,-2.3287,-2.3341,-2.3384,-2.3392,-2.3432,-2.3423,-2.35,-2.3443,-2.355,-2.3493,-2.3526,-2.3541,-2.3546,-2.3556,-2.3492,-2.3598,-2.3772,-2.3792,-2.3562,-2.3559,-2.3557,0,-2.3028,-2.3129,-2.3219,-2.3244,-2.3296,-2.3338,-2.3361,-2.3401,-2.344,-2.349,-2.3515,-2.3574,-2.3607,-2.3653,-2.366,-2.3617,-2.3768,-2.3711,-2.3777,-2.3777,-2.3811,-2.381,-2.3996,-2.383,-2.383,-2.3829,-2.3829,0,-2.3176,-2.3256,-2.3268,-2.3324,-2.3413,-2.3414,-2.3502,-2.3522,-2.3557,-2.3617,-2.36,-2.3656,-2.3661,-2.3718,-2.3724,-2.3812,-2.3827,-2.3835,-2.3836,-2.3838,-2.3837,-2.3862,-2.3854,-2.3834,-2.3833,-2.3832,-2.3831,0,-2.3313,-2.3324,-2.3421,-2.3461,-2.3473,-2.3537,-2.3571,-2.3624,-2.3637,-2.3712,-2.373,-2.375,-2.3817,-2.3828,-2.3906,-2.391,-2.4016,-2.4007,-2.4002,-2.4001,-2.4067,-2.4061,-2.4277,-2.4305,-2.4119,-2.4121,-2.4122,0,-2.3407,-2.3469,-2.3514,-2.3553,-2.3578,-2.364,-2.3678,-2.368,-2.3721,-2.3774,-2.3821,-2.3886,-2.3938,-2.4046,-2.4068,-2.4128,-2.4121,-2.4192,-2.413,-2.413,-2.4124,-2.4121,-2.4127,-2.4205,-2.4207,-2.4209,-2.421,0,-2.3574,-2.3576,-2.3632,-2.369,-2.3736,-2.3781,-2.3824,-2.3857,-2.3864,-2.391,-2.3978,-2.4019,-2.4098,-2.4163,-2.4222,-2.4246,-2.423,-2.4229,-2.4248,-2.4251,-2.4246,-2.4251,-2.4036,-2.4225,-2.4223,-2.4222,-2.4221,-2.4221,-2.3694,-2.3747,-2.3788,-2.385,-2.3882,-2.3923,-2.3975,-2.3993,-2.4049,-2.4114,-2.4111,-2.4186,-2.4227,-2.4304,-2.4332,-2.439,-2.4368,-2.4394,-2.4401,-2.4409,-2.4415,-2.4235,-2.4401,-2.4401,-2.44,-2.44,-2.44,0,-2.3861,-2.3886,-2.3943,-2.4003,-2.4052,-2.4031,-2.4077,-2.412,-2.4185,-2.4224,-2.4276,-2.4353,-2.4415,-2.4441,-2.4502,-2.4544,-2.4538,-2.456,-2.4558,-2.4564,-2.4432,-2.441,-2.4564,-2.4564,-2.4564,-2.4564,-2.4564,-2.4564,-2.3954,-2.4043,-2.405,-2.4154,-2.4178,-2.4251,-2.4279,-2.4316,-2.4347,-2.4434,-2.4486,-2.4502,-2.4536,-2.4599,-2.4655,-2.4661,-2.4685,-2.471,-2.4713,-2.459,-2.4573,-2.4558,-2.4537,-2.4715,-2.4715,-2.4841,-2.4842,-2.4843]},{"header":{"parameterUnit":"m.s-1","parameterCategory":1,"la1":30.2991,"la2":30.254,"lo1":-89.0895,"lo2":-89.0444,"dx":0.0017,"dy":0.0017,"nx":28,"ny":28,"refTime":"2022-11-30T15:00:00:Z","depth":0,"parameterNumber":3,"parameterNumberName":"V-component_of_WINDS"},"data":[0,0,0,0,0,0,0,0,0,0,0,0,0,0,0,0,0,0,0,0,0,0,0,0,0,0,0,0,0,0,0,0,0,0,0,0,0,0,0,0,0,0,0,0,0,0,0,0,0,0,0,0,0,0,0,0,0,0,-8.6283,-8.6285,0,-8.644,-8.6441,-8.6443,-8.6339,-8.6334,-8.633,-8.6325,-8.648,-8.6488,-8.6496,0,0,0,0,0,0,0,0,0,0,0,0,0,-8.5888,-8.5896,-8.6283,-8.6285,-8.6287,-8.6439,-8.6441,-8.6443,-8.634,-8.6334,-8.6328,-8.6323,-8.6477,-8.6487,-8.6497,0,0,0,0,0,0,0,0,0,0,0,0,0,-8.6054,-8.5899,-8.6283,-8.6254,-8.6253,-8.6439,-8.6441,-8.6444,-8.6341,-8.6334,-8.6327,-8.632,-8.6473,-8.6486,-8.6498,-8.672,0,0,-8.6538,-8.6543,0,0,0,0,0,0,0,0,-8.6044,-8.6068,-8.6256,-8.6256,-8.6255,-8.6363,-8.6359,-8.6536,-8.6343,-8.6307,-8.6325,-8.6317,-8.6446,-8.6461,-8.6505,-8.6727,-8.6734,-8.6539,-8.6546,-8.6552,-8.6556,0,0,0,0,0,0,0,-8.6033,-8.6061,-8.6345,-8.6259,-8.6258,-8.6231,-8.6246,-8.6392,-8.6414,-8.631,-8.6303,-8.6323,-8.6444,-8.6493,-8.6508,-8.6736,-8.6538,-8.655,-8.6558,-8.6563,-8.7146,-8.7154,0,0,0,0,0,0,-8.6025,-8.6052,-8.634,-8.6349,-8.613,-8.6244,-8.6261,-8.6335,-8.6413,-8.6418,-8.6329,-8.6318,-8.6475,-8.6493,-8.6513,-8.6778,-8.6552,-8.6564,-8.6571,-8.7139,-8.7148,-8.7156,0,0,0,0,0,0,-8.6017,-8.6052,-8.6333,-8.6199,-8.6233,-8.6258,-8.6342,-8.6342,-8.6391,-8.6427,-8.643,-8.6375,-8.647,-8.6495,-8.667,-8.6782,-8.657,-8.6581,-8.7129,-8.7141,-8.7152,-8.7309,0,0,0,0,0,0,-8.6006,-8.6049,-8.6135,-8.6202,-8.624,-8.649,-8.6349,-8.635,-8.6414,-8.6401,-8.6471,-8.6476,-8.6466,-8.6651,-8.6682,-8.6795,-8.6591,-8.7119,-8.7135,-8.7149,-8.7294,-8.7324,-8.7351,0,0,0,0,0,-8.5992,-8.6172,-8.614,-8.6176,-8.6349,-8.6496,-8.6518,-8.6505,-8.6424,-8.6509,-8.6532,-8.6474,-8.6764,-8.667,-8.6704,-8.6823,-8.7112,-8.713,-8.7147,-8.7281,-8.7318,-8.735,0,0,0,0,0,0,-8.6116,-8.618,-8.6146,-8.6353,-8.642,-8.6479,-8.6586,-8.6545,-8.6635,-8.6619,-8.6597,-8.6613,-8.6796,-8.6826,-8.672,-8.7041,-8.6925,-8.695,-8.7015,-8.7051,-8.7078,-8.7068,-8.6602,0,0,0,0,0,-8.6168,-8.6285,-8.6333,-8.6511,-8.6547,-8.6561,-8.6625,-8.6609,-8.6677,-8.6704,-8.674,-8.6807,-8.6912,-8.6983,-8.7082,-8.7297,-8.731,-8.7395,-8.7424,-8.7447,-8.7469,-8.7584,-8.7622,-8.7214,-8.7214,-8.7214,0,0,-8.6276,-8.6325,-8.64,-8.6537,-8.6588,-8.6707,-8.6586,-8.6717,-8.6805,-8.6723,-8.6891,-8.692,-8.6992,-8.7188,-8.7276,-8.7219,-8.7585,-8.7469,-8.7488,-8.7497,-8.7606,-8.7645,-8.7679,-8.7226,-8.7224,-8.7222,0,0,-8.6533,-8.6582,-8.6736,-8.6789,-8.6868,-8.6876,-8.6913,-8.6978,-8.6994,-8.7163,-8.7104,-8.7206,-8.739,-8.7444,-8.7496,-8.7773,-8.7722,-8.7806,-8.7955,-8.8067,-8.8099,-8.8127,-8.8226,-8.8262,-8.7827,-8.7828,-8.7828,0,-8.6656,-8.6836,-8.682,-8.6957,-8.7018,-8.6951,-8.7106,-8.7157,-8.7264,-8.7307,-8.7242,-8.7471,-8.7515,-8.7722,-8.779,-8.7833,-8.7874,-8.7798,-8.8096,-8.8124,-8.8151,-8.8245,-8.8282,-8.7837,-8.7836,-8.7835,-8.7834,0,-8.6984,-8.7109,-8.7224,-8.733,-8.7404,-8.7549,-8.7553,-8.763,-8.7607,-8.7621,-8.7792,-8.7843,-8.7952,-8.7999,-8.7977,-8.8203,-8.8166,-8.8099,-8.7983,-8.82,-8.8288,-8.8323,-8.7851,-8.7848,-8.7845,-8.7843,0,0,-8.7325,-8.7421,-8.7463,-8.751,-8.7592,-8.7687,-8.7828,-8.7936,-8.8002,-8.8077,-8.8194,-8.835,-8.8289,-8.8347,-8.8331,-8.843,-8.8646,-8.835,-8.8352,-8.8404,-8.8897,-8.8948,-8.899,-8.8612,-8.8619,-8.8625,-8.8891,0,-8.7587,-8.7836,-8.7825,-8.8056,-8.8171,-8.8109,-8.8231,-8.8293,-8.831,-8.8408,-8.8425,-8.8537,-8.8448,-8.8483,-8.8578,-8.86,-8.8745,-8.858,-8.8719,-8.8725,-8.8705,-8.9036,-8.9089,-8.9339,-8.8925,-8.8931,-8.8935,0,-8.7927,-8.8016,-8.826,-8.8324,-8.8371,-8.8482,-8.858,-8.8675,-8.8743,-8.8748,-8.8814,-8.8781,-8.8921,-8.8801,-8.8993,-8.8881,-8.8937,-8.8956,-8.8965,-8.8978,-8.8844,-8.9058,-8.9418,-8.9456,-8.8989,-8.8985,-8.8981,0,-8.8152,-8.8332,-8.8501,-8.8543,-8.8622,-8.8701,-8.8737,-8.8798,-8.8864,-8.8948,-8.899,-8.9089,-8.9144,-8.922,-8.9214,-8.9127,-8.9409,-8.9288,-8.9416,-8.9417,-8.9479,-8.9476,-8.9854,-8.9515,-8.9514,-8.9513,-8.9513,0,-8.8447,-8.8598,-8.8603,-8.8708,-8.8875,-8.8859,-8.9024,-8.9052,-8.9107,-8.9213,-8.9164,-8.9265,-8.925,-8.9351,-8.9346,-8.9506,-8.9531,-8.9538,-8.9535,-8.9543,-8.9542,-8.958,-8.9562,-8.9523,-8.9521,-8.9519,-8.9517,0,-8.8727,-8.8737,-8.8917,-8.8977,-8.8995,-8.9116,-8.9166,-8.9264,-8.9276,-8.9412,-8.9442,-8.9461,-8.9577,-8.9578,-8.971,-8.9707,-8.9902,-8.9879,-8.988,-8.9876,-9.0004,-8.9993,-9.0421,-9.0476,-9.01,-9.0104,-9.0107,0,-8.8915,-8.903,-8.9103,-8.9172,-8.9214,-8.9325,-8.9392,-8.9381,-8.9452,-8.9538,-8.9625,-8.9736,-8.9825,-9.0012,-9.0036,-9.0136,-9.0116,-9.0259,-9.013,-9.0135,-9.0118,-9.0112,-9.0123,-9.0284,-9.0288,-9.0292,-9.0295,0,-8.9248,-8.9247,-8.9346,-8.9449,-8.953,-8.9609,-8.9682,-8.9741,-8.9737,-8.9819,-8.9938,-9.0007,-9.0142,-9.0253,-9.035,-9.0383,-9.0339,-9.0335,-9.037,-9.038,-9.0376,-9.038,-8.995,-9.0325,-9.0322,-9.032,-9.0318,-9.0317,-8.9488,-8.9588,-8.9655,-8.9767,-8.9821,-8.989,-8.9985,-9.001,-9.011,-9.022,-9.0206,-9.0339,-9.0402,-9.0527,-9.057,-9.0672,-9.0621,-9.0672,-9.0685,-9.0698,-9.0712,-9.0359,-9.0689,-9.0688,-9.0687,-9.0686,-9.0686,0,-8.9818,-8.9859,-8.9962,-9.0067,-9.0155,-9.0106,-9.0184,-9.0261,-9.0379,-9.0442,-9.0531,-9.0667,-9.0774,-9.0807,-9.0909,-9.0984,-9.0966,-9.1012,-9.1006,-9.1015,-9.0751,-9.0711,-9.1025,-9.1025,-9.1025,-9.1025,-9.1025,-9.1025,-9.0001,-9.0167,-9.0174,-9.0366,-9.0404,-9.0535,-9.0584,-9.0646,-9.0697,-9.0852,-9.0942,-9.0963,-9.1014,-9.112,-9.1215,-9.1222,-9.1262,-9.1316,-9.1315,-9.1068,-9.1034,-9.1001,-9.0963,-9.1325,-9.1326,-9.157,-9.1572,-9.1574]}]]